Weather History for Middlebury State AP, Middlebu, VT

Change the Weather History Date:

Saturday, June 7, 2014

  Actual Average (KMPV) Record (KMPV)
Temperature  
Mean Temperature 66 °F 60 °F  
Max Temperature 80 °F 72 °F 89 °F (1999)
Min Temperature 51 °F 49 °F 29 °F (1958)
Cooling Degree Days 0 1  
Month to date cooling degree days 7  
Year to date cooling degree days 17  
Since 1 June cooling degree days 7  
Growing Degree Days 16 (Base 50)    
Moisture  
Dew Point 54 °F    
Average Humidity 69    
Maximum Humidity 100    
Minimum Humidity 37    
Precipitation  
Precipitation 0.00 in 0.13 in 1.78 in (1984)
Month to date precipitation 0.89  
Year to date precipitation 13.80  
Sea Level Pressure  
Sea Level Pressure 29.95 in    
Wind  
Wind Speed 2 mph (WNW)    
Max Wind Speed 9 mph    
Max Gust Speed 16 mph    
Visibility 10 miles    
Events      
T = Trace of Precipitation, MM = Missing Value Source: NWS Daily Summary

Daily Weather History Graph

Daily Weather History Graph

Search for Another Location

Airport:

Trip Planner

Search our weather history database for the weather conditions in past years. The results will help you decide how hot, cold, wet, or windy it might be!

Date:

Astronomy

Jun. 07, 2014 Rise Set
Actual Time 5:10 AM EDT 8:32 PM EDT
Civil Twilight 4:34 AM EDT 9:08 PM EDT
Nautical Twilight 3:47 AM EDT 9:55 PM EDT
Astronomical Twilight 2:49 AM EDT 10:54 PM EDT
Moon 2:36 PM EDT (6/7) 1:42 AM EDT (6/7)
Length of Visible Light 16h 34m
Length of Day
15h 22m
Waxing Gibbous, 67% of the Moon is Illuminated
Jun 7
Waxing Gibbous
Jun 13
Full
Jun 19
Last Quarter
Jun 27
New
Jul 5
First Quarter

Hourly Weather History & Observations

Time (EDT) Temp. Heat Index Dew Point Humidity Pressure Visibility Wind Dir Wind Speed Gust Speed Precip Events Conditions
12:15 AM 56.7 °F - 55.9 °F 97% 29.94 in 10.0 mi Calm Calm - N/A   Overcast
12:35 AM 55.6 °F - 55.0 °F 98% 29.94 in 10.0 mi Calm Calm - N/A   Mostly Cloudy
12:55 AM 55.8 °F - 55.6 °F 99% 29.94 in 10.0 mi Calm Calm - N/A   Overcast
1:15 AM 56.7 °F - 55.8 °F 97% 29.94 in 10.0 mi Calm Calm - N/A   Overcast
1:35 AM 56.3 °F - 55.4 °F 97% 29.94 in 10.0 mi Calm Calm - N/A   Overcast
1:55 AM 55.6 °F - 55.2 °F 99% 29.95 in 10.0 mi Calm Calm - N/A   Mostly Cloudy
2:15 AM 55.0 °F - 54.7 °F 99% 29.95 in 10.0 mi Calm Calm - N/A   Scattered Clouds
2:35 AM 54.5 °F - 54.5 °F 100% 29.94 in 10.0 mi Calm Calm - N/A   Clear
2:55 AM 54.3 °F - 54.1 °F 99% 29.94 in 10.0 mi Calm Calm - N/A   Clear
3:15 AM 55.0 °F - 54.1 °F 97% 29.95 in 10.0 mi Calm Calm - N/A   Clear
3:35 AM 53.2 °F - 53.2 °F 100% 29.94 in 10.0 mi Calm Calm - N/A   Clear
3:55 AM 52.0 °F - 52.0 °F 100% 29.95 in 10.0 mi Calm Calm - N/A   Clear
4:15 AM 52.3 °F - 52.3 °F 100% 29.95 in 10.0 mi Calm Calm - N/A   Clear
4:35 AM 52.0 °F - 52.0 °F 100% 29.95 in 10.0 mi Calm Calm - N/A   Clear
4:55 AM 52.2 °F - 52.2 °F 100% 29.95 in 10.0 mi Calm Calm - N/A   Clear
5:15 AM 52.2 °F - 52.2 °F 100% 29.95 in 10.0 mi Calm Calm - N/A   Clear
5:35 AM 51.3 °F - 51.3 °F 100% 29.96 in 10.0 mi Calm Calm - N/A   Clear
5:55 AM 51.3 °F - 51.3 °F 100% 29.96 in 10.0 mi Calm Calm - N/A   Clear
6:15 AM 51.4 °F - 51.4 °F 100% 29.97 in 10.0 mi Calm Calm - N/A   Clear
6:35 AM 53.4 °F - 53.4 °F 100% 29.97 in 10.0 mi Calm Calm - N/A   Clear
6:55 AM 55.4 °F - 55.4 °F 100% 29.97 in 10.0 mi Calm Calm - N/A   Clear
7:15 AM 57.4 °F - 56.5 °F 97% 29.97 in 10.0 mi Calm Calm - N/A   Clear
7:55 AM 61.9 °F - 56.5 °F 82% 29.99 in 10.0 mi ESE 3.5 mph - N/A   Clear
8:15 AM 63.7 °F - 57.2 °F 79% 29.99 in 10.0 mi ESE 3.5 mph - N/A   Clear
8:35 AM 65.1 °F - 57.2 °F 75% 29.99 in 10.0 mi ESE 3.5 mph - N/A   Clear
8:55 AM 66.7 °F - 55.0 °F 66% 29.99 in 10.0 mi Calm Calm - N/A   Clear
9:35 AM 68.7 °F - 55.0 °F 62% 29.99 in 10.0 mi Calm Calm - N/A   Clear
9:55 AM 69.3 °F - 54.7 °F 60% 29.99 in 10.0 mi WNW 4.6 mph - N/A   Clear
10:15 AM 70.3 °F - 54.1 °F 56% 29.99 in 10.0 mi North 3.5 mph - N/A   Clear
10:35 AM 71.1 °F - 54.7 °F 56% 29.99 in 10.0 mi WSW 3.5 mph - N/A   Clear
10:55 AM 72.0 °F - 54.3 °F 54% 29.99 in 10.0 mi NW 6.9 mph - N/A   Clear
11:15 AM 73.2 °F - 54.7 °F 52% 29.99 in 10.0 mi WNW 8.1 mph - N/A   Clear
11:35 AM 73.6 °F - 54.3 °F 51% 29.99 in 10.0 mi West 8.1 mph - N/A   Clear
11:55 AM 73.9 °F - 55.0 °F 52% 29.98 in 10.0 mi WNW 8.1 mph - N/A   Clear
12:15 PM 74.8 °F - 54.7 °F 49% 29.98 in 10.0 mi West 6.9 mph - N/A   Clear
12:35 PM 74.7 °F - 54.3 °F 49% 29.98 in 10.0 mi West 5.8 mph - N/A   Scattered Clouds
1:15 PM 76.5 °F - 53.2 °F 44% 29.98 in 10.0 mi West 8.1 mph 16.1 mph N/A   Clear
1:35 PM 77.2 °F - 53.8 °F 44% 29.98 in 10.0 mi WNW 8.1 mph - N/A   Clear
1:55 PM 77.7 °F - 53.6 °F 43% 29.97 in 10.0 mi WNW 8.1 mph 16.1 mph N/A   Clear
2:15 PM 77.9 °F - 53.6 °F 43% 29.97 in 10.0 mi West 8.1 mph - N/A   Clear
2:35 PM 78.8 °F - 54.7 °F 43% 29.96 in 10.0 mi WNW 5.8 mph - N/A   Clear
2:55 PM 78.8 °F - 52.2 °F 39% 29.95 in 10.0 mi WNW 8.1 mph 16.1 mph N/A   Clear
3:15 PM 79.2 °F - 53.1 °F 40% 29.95 in 10.0 mi WNW 5.8 mph - N/A   Clear
3:35 PM 79.7 °F - 52.5 °F 39% 29.94 in 10.0 mi West 4.6 mph - N/A   Clear
3:55 PM 80.1 °F 80.0 °F 53.4 °F 40% 29.94 in 10.0 mi NW 9.2 mph - N/A   Clear
4:15 PM 79.2 °F - 52.2 °F 39% 29.93 in 10.0 mi NNW 6.9 mph - N/A   Clear
4:35 PM 79.5 °F - 51.4 °F 37% 29.92 in 10.0 mi NW 8.1 mph - N/A   Clear
4:55 PM 79.7 °F - 50.9 °F 37% 29.92 in 10.0 mi NW 6.9 mph - N/A   Clear
5:15 PM 79.7 °F - 51.3 °F 37% 29.91 in 10.0 mi WNW 8.1 mph - N/A   Clear
5:35 PM 79.0 °F - 51.3 °F 38% 29.91 in 10.0 mi WNW 9.2 mph - N/A   Clear
5:55 PM 79.2 °F - 51.6 °F 38% 29.90 in 10.0 mi WNW 8.1 mph - N/A   Clear
6:15 PM 79.0 °F - 51.6 °F 38% 29.91 in 10.0 mi West 8.1 mph - N/A   Clear
6:35 PM 78.4 °F - 51.8 °F 39% 29.90 in 10.0 mi WNW 8.1 mph - N/A   Clear
6:55 PM 77.9 °F - 52.0 °F 40% 29.90 in 10.0 mi West 5.8 mph - N/A   Clear
7:15 PM 77.0 °F - 52.2 °F 42% 29.90 in 10.0 mi WNW 4.6 mph - N/A   Clear
7:35 PM 76.1 °F - 53.1 °F 45% 29.91 in 10.0 mi Calm Calm - N/A   Clear
7:55 PM 72.3 °F - 57.6 °F 60% 29.91 in 10.0 mi Calm Calm - N/A   Clear
8:15 PM 70.0 °F - 57.9 °F 65% 29.91 in 10.0 mi Calm Calm - N/A   Clear
8:35 PM 67.6 °F - 58.1 °F 71% 29.92 in 10.0 mi Calm Calm - N/A   Clear
8:55 PM 66.2 °F - 57.9 °F 75% 29.92 in 10.0 mi Calm Calm - N/A   Clear
9:15 PM 64.8 °F - 57.2 °F 76% 29.93 in 10.0 mi Calm Calm - N/A   Clear
9:35 PM 63.7 °F - 55.8 °F 75% 29.94 in 10.0 mi Calm Calm - N/A   Clear
9:55 PM 63.5 °F - 55.4 °F 75% 29.96 in 10.0 mi Calm Calm - N/A   Clear
10:15 PM 63.0 °F - 54.5 °F 74% 29.96 in 10.0 mi Calm Calm - N/A   Clear
10:35 PM 62.2 °F - 54.5 °F 76% 29.96 in 10.0 mi Calm Calm - N/A   Clear
10:55 PM 62.6 °F - 53.8 °F 73% 29.95 in 10.0 mi Calm Calm - N/A   Clear
11:15 PM 60.1 °F - 55.4 °F 85% 29.96 in 10.0 mi Calm Calm - N/A   Clear
11:35 PM 60.1 °F - 54.5 °F 82% 29.97 in 10.0 mi Calm Calm - N/A   Clear
11:55 PM 62.4 °F - 52.9 °F 71% 29.95 in 10.0 mi ENE 3.5 mph - N/A   Clear